[[{"header":{"parameterUnit":"m.s-1","parameterCategory":2,"la1":30.2991,"la2":30.254,"lo1":-89.0895,"lo2":-89.0444,"dy":0.0017,"dx":0.0017,"nx":28,"ny":28,"refTime":"2025-06-23T03:00:00:Z","depth":"0","parameterNumber":2,"parameterNumberName":"U-component_of_CURRENTS"},"data":[0,0,0,0,0,0,0,0,0,0,0,0,0,0,0,0,0,0,0,0,0,0,0,0,0,0,0,0,0,0,0,0,0,0,0,0,0,0,0,0,0,0,0,0,0,0,0,0,0,0,0,0,0,0,0,0,0,0,0.3712,0.3713,0,0.3772,0.3772,0.3773,0.3774,0.3773,0.3773,0.3772,0.3777,0.3778,0.3778,0,0,0,0,0,0,0,0,0,0,0,0,0,0.3597,0.3599,0.3712,0.3713,0.3714,0.3772,0.3772,0.3773,0.3774,0.3773,0.3773,0.3772,0.3777,0.3777,0.3778,0,0,0,0,0,0,0,0,0,0,0,0,0,0.3648,0.3599,0.3712,0.3723,0.3725,0.3771,0.3772,0.3773,0.3774,0.3773,0.3773,0.3772,0.3777,0.3777,0.3778,0.38,0,0,0.3781,0.3782,0,0,0,0,0,0,0,0,0.3645,0.3652,0.3721,0.3723,0.3725,0.3767,0.3733,0.378,0.3774,0.3753,0.3772,0.3771,0.3771,0.3772,0.3782,0.38,0.38,0.3781,0.3782,0.3782,0.3782,0,0,0,0,0,0,0,0.3642,0.365,0.3733,0.3722,0.3724,0.3725,0.3731,0.3742,0.3763,0.3755,0.3756,0.3766,0.3771,0.3781,0.3782,0.38,0.3781,0.3782,0.3783,0.3783,0.3884,0.3886,0,0,0,0,0,0,0.3641,0.3647,0.3731,0.3735,0.3685,0.3728,0.3734,0.3752,0.3764,0.3766,0.3767,0.3766,0.378,0.3781,0.3782,0.3845,0.3782,0.3783,0.3784,0.3882,0.3885,0.3887,0,0,0,0,0,0,0.3638,0.3648,0.3729,0.3693,0.3704,0.3731,0.375,0.3754,0.3767,0.3774,0.3774,0.3777,0.378,0.3781,0.3809,0.3843,0.3783,0.3784,0.3879,0.3883,0.3886,0.3946,0,0,0,0,0,0,0.3635,0.3647,0.3658,0.3694,0.3706,0.3768,0.3751,0.3755,0.3776,0.3776,0.3783,0.3783,0.3779,0.3808,0.381,0.3843,0.3785,0.3877,0.3881,0.3885,0.3941,0.3951,0.3959,0,0,0,0,0,0.363,0.3651,0.3659,0.3669,0.3722,0.377,0.3777,0.379,0.3777,0.3796,0.3802,0.3783,0.3835,0.381,0.3812,0.3847,0.3875,0.388,0.3884,0.3937,0.3949,0.3959,0,0,0,0,0,0,0.3602,0.3654,0.3663,0.3697,0.3736,0.3771,0.379,0.3795,0.3815,0.3811,0.3805,0.3807,0.3849,0.3842,0.3814,0.3891,0.3854,0.3859,0.3894,0.3904,0.3913,0.3936,0.3786,0,0,0,0,0,0.3604,0.3636,0.3682,0.371,0.3732,0.376,0.3779,0.3792,0.3815,0.3823,0.3831,0.3844,0.3872,0.388,0.3901,0.3936,0.3966,0.3963,0.3972,0.3979,0.4001,0.4071,0.4089,0.3903,0.3903,0.3902,0,0,0.3595,0.3634,0.3647,0.3707,0.3736,0.3779,0.377,0.3807,0.3845,0.382,0.3867,0.3876,0.389,0.3937,0.3954,0.3932,0.4052,0.3985,0.3991,0.401,0.4078,0.4096,0.4112,0.3906,0.3905,0.3905,0,0,0.3603,0.3636,0.3665,0.3707,0.3762,0.3792,0.3805,0.3849,0.3871,0.3917,0.3917,0.3951,0.3978,0.4007,0.4021,0.4093,0.41,0.4094,0.4153,0.422,0.4236,0.425,0.4329,0.435,0.4094,0.4094,0.4094,0,0.3587,0.3639,0.368,0.3727,0.3761,0.38,0.3838,0.3881,0.3928,0.3955,0.3939,0.4017,0.402,0.4093,0.4122,0.4114,0.4156,0.4106,0.4232,0.4247,0.426,0.4337,0.4359,0.4098,0.4097,0.4097,0.4097,0,0.362,0.3665,0.3691,0.3766,0.3809,0.3852,0.3917,0.3961,0.3985,0.4024,0.4098,0.4119,0.4165,0.4175,0.4169,0.4271,0.4273,0.4237,0.4202,0.4283,0.4359,0.4381,0.4103,0.4102,0.4101,0.41,0,0,0.3576,0.3687,0.3697,0.3742,0.3831,0.3874,0.3948,0.4029,0.4091,0.4136,0.4214,0.4265,0.428,0.43,0.4305,0.4364,0.4495,0.4347,0.4348,0.4422,0.4667,0.4642,0.4664,0.4479,0.4482,0.4485,0.4687,0,0.3586,0.3671,0.3725,0.381,0.3861,0.3927,0.4005,0.4084,0.4149,0.4241,0.4285,0.4362,0.4329,0.4362,0.4419,0.4482,0.4554,0.4445,0.4582,0.4587,0.4552,0.4688,0.4593,0.4762,0.4708,0.4712,0.4715,0,0.3599,0.3663,0.3733,0.3854,0.3882,0.3938,0.4065,0.4142,0.4276,0.433,0.4409,0.4451,0.4561,0.4511,0.4672,0.4606,0.4652,0.469,0.4698,0.4671,0.4603,0.4671,0.4804,0.4715,0.4748,0.4745,0.4743,0,0.3558,0.367,0.3725,0.3764,0.3902,0.3947,0.4025,0.4158,0.4227,0.4395,0.4466,0.4585,0.4667,0.4741,0.482,0.476,0.5001,0.4916,0.4944,0.4942,0.4888,0.4875,0.4947,0.504,0.504,0.5039,0.5038,0,0.3554,0.3603,0.3712,0.3751,0.3824,0.3938,0.4031,0.4133,0.4278,0.4378,0.451,0.4609,0.473,0.4861,0.4898,0.5019,0.5067,0.5006,0.5009,0.4907,0.4894,0.4831,0.4769,0.5047,0.5045,0.5043,0.5042,0,0.3497,0.3572,0.3639,0.3769,0.3803,0.3858,0.399,0.4071,0.4241,0.4379,0.4435,0.4659,0.486,0.4985,0.5148,0.5132,0.5114,0.5251,0.5136,0.5121,0.5005,0.4949,0.4831,0.4675,0.5313,0.5314,0.5314,0,0.3469,0.3505,0.361,0.364,0.3691,0.3781,0.3846,0.4012,0.4098,0.439,0.4454,0.4719,0.489,0.5167,0.5234,0.5363,0.5175,0.5296,0.5145,0.5038,0.4979,0.4728,0.4584,0.5113,0.5112,0.5111,0.511,0,0.3418,0.3453,0.3503,0.3559,0.3615,0.3669,0.3779,0.3836,0.4062,0.4211,0.4436,0.4612,0.4951,0.5075,0.5279,0.5315,0.5066,0.5278,0.5204,0.4881,0.4578,0.4415,0.4947,0.5103,0.5104,0.5104,0.5105,0.5105,0.3361,0.3362,0.3427,0.3471,0.3518,0.356,0.3568,0.3708,0.3832,0.4042,0.4299,0.4536,0.4877,0.5169,0.5171,0.5153,0.5024,0.5034,0.4999,0.4771,0.4535,0.506,0.5178,0.5179,0.518,0.5181,0.5182,0,0.3297,0.3314,0.3346,0.3378,0.3375,0.3441,0.3517,0.3514,0.3606,0.3875,0.4069,0.4459,0.4692,0.4905,0.5057,0.4915,0.464,0.4799,0.4444,0.4329,0.4877,0.4783,0.4776,0.4776,0.4776,0.4776,0.4776,0.4777,0.3275,0.3268,0.3281,0.3238,0.3247,0.3187,0.3197,0.3221,0.3353,0.3559,0.3769,0.4036,0.4527,0.4928,0.4912,0.4775,0.4364,0.422,0.4116,0.4567,0.4585,0.4601,0.45,0.4433,0.4433,0.3404,0.3397,0.3392]},{"header":{"parameterUnit":"m.s-1","parameterCategory":2,"la1":30.2991,"la2":30.254,"lo1":-89.0895,"lo2":-89.0444,"dy":0.0017,"dx":0.0017,"nx":28,"ny":28,"refTime":"2025-06-23T03:00:00:Z","depth":"0","parameterNumber":3,"parameterNumberName":"V-component_of_CURRENTS"},"data":[0,0,0,0,0,0,0,0,0,0,0,0,0,0,0,0,0,0,0,0,0,0,0,0,0,0,0,0,0,0,0,0,0,0,0,0,0,0,0,0,0,0,0,0,0,0,0,0,0,0,0,0,0,0,0,0,0,0,0.0108,0.0107,0,0.0007,0.0006,0.0004,-0.0071,-0.0072,-0.0072,-0.0072,-0.0231,-0.0235,-0.0239,0,0,0,0,0,0,0,0,0,0,0,0,0,0.0164,0.0164,0.0108,0.0107,0.0106,0.0007,0.0006,0.0004,-0.0071,-0.0072,-0.0072,-0.0073,-0.023,-0.0235,-0.0239,0,0,0,0,0,0,0,0,0,0,0,0,0,0.0107,0.0164,0.0108,0.0059,0.0054,0.0008,0.0005,0.0003,-0.0071,-0.0072,-0.0072,-0.0073,-0.0229,-0.0234,-0.024,-0.0263,0,0,-0.0258,-0.026,0,0,0,0,0,0,0,0,0.011,0.0105,0.0067,0.0062,0.0056,-0.0018,-0.0033,-0.0088,-0.0071,-0.0027,-0.0072,-0.0073,-0.0163,-0.0174,-0.0195,-0.027,-0.0277,-0.0258,-0.0262,-0.0264,-0.0266,0,0,0,0,0,0,0,0.0114,0.0108,0.0065,0.0066,0.006,0.0017,0.0009,-0.0044,-0.0093,-0.0031,-0.0036,-0.0042,-0.0167,-0.0189,-0.0199,-0.0279,-0.0258,-0.0263,-0.0267,-0.0269,-0.0385,-0.0384,0,0,0,0,0,0,0.0137,0.0112,0.0069,0.0063,0.0085,0.0017,0.0007,0.0004,-0.0092,-0.0106,-0.0042,-0.0045,-0.0179,-0.0193,-0.0205,-0.0233,-0.0264,-0.0269,-0.0273,-0.0385,-0.0385,-0.0384,0,0,0,0,0,0,0.0139,0.0134,0.0073,0.0087,0.0076,0.0018,0.0014,0.0003,-0.0018,-0.0099,-0.0115,-0.005,-0.018,-0.0197,-0.0243,-0.024,-0.0272,-0.0277,-0.0385,-0.0385,-0.0384,-0.0291,0,0,0,0,0,0,0.0141,0.0135,0.0141,0.0089,0.0077,0.0057,0.0015,0.0001,-0.002,-0.0026,-0.0111,-0.0127,-0.0182,-0.0234,-0.0249,-0.0248,-0.0282,-0.0386,-0.0385,-0.0385,-0.0294,-0.0287,-0.0281,0,0,0,0,0,0.0143,0.016,0.0142,0.0136,0.0086,0.0058,0.0048,0.0001,-0.0019,-0.0021,-0.0078,-0.0124,-0.024,-0.0238,-0.0256,-0.0257,-0.0386,-0.0385,-0.0385,-0.0297,-0.0289,-0.0281,0,0,0,0,0,0,0.0187,0.0152,0.0131,0.0136,0.0104,0.0047,0.0044,0.0011,-0.0036,-0.0041,-0.012,-0.014,-0.0178,-0.0228,-0.0223,-0.0287,-0.0321,-0.0323,-0.0249,-0.0241,-0.0234,-0.0208,-0.0287,0,0,0,0,0,0.0201,0.0203,0.016,0.0164,0.0154,0.01,0.0083,0.0053,0.0006,-0.0015,-0.0073,-0.0135,-0.0189,-0.0221,-0.0273,-0.0308,-0.034,-0.032,-0.0313,-0.0307,-0.0298,-0.0348,-0.0345,-0.0381,-0.0381,-0.0381,0,0,0.0219,0.0201,0.0201,0.0173,0.0145,0.0139,0.0088,0.0074,0.0063,-0.0025,-0.0053,-0.0112,-0.0191,-0.023,-0.0252,-0.0271,-0.0308,-0.0306,-0.03,-0.0294,-0.0347,-0.0344,-0.034,-0.0381,-0.0381,-0.0381,0,0,0.0262,0.0243,0.0259,0.024,0.021,0.0176,0.0178,0.0128,0.0101,0.0067,0.0002,-0.005,-0.013,-0.0187,-0.0227,-0.0215,-0.0268,-0.0232,-0.0184,-0.0232,-0.023,-0.0228,-0.0234,-0.0234,-0.0233,-0.0232,-0.0232,0,0.0285,0.0297,0.0259,0.0269,0.0262,0.02,0.0215,0.0178,0.0118,0.0104,0.0073,-0.0038,-0.011,-0.0162,-0.0163,-0.02,-0.022,-0.0206,-0.0222,-0.0221,-0.0221,-0.0229,-0.023,-0.0228,-0.0228,-0.0229,-0.0229,0,0.0334,0.0343,0.0354,0.0344,0.0332,0.0336,0.0288,0.0271,0.0231,0.0189,0.014,0.0045,-0.0018,-0.0056,-0.0112,-0.0145,-0.0155,-0.0203,-0.0238,-0.0211,-0.0221,-0.0224,-0.0221,-0.0223,-0.0224,-0.0225,0,0,0.0386,0.0389,0.0392,0.0407,0.0375,0.0374,0.0364,0.0337,0.0349,0.0266,0.027,0.0148,0.0101,0.0053,-0.0025,-0.008,-0.0099,-0.0134,-0.0139,-0.013,-0.0171,-0.0173,-0.0176,-0.015,-0.015,-0.0151,-0.0168,0,0.0435,0.0479,0.0461,0.0498,0.0518,0.0471,0.0475,0.0442,0.0407,0.0396,0.0285,0.0252,0.0141,0.0121,0.0046,-0.0051,-0.0105,-0.0088,-0.0208,-0.021,-0.0208,-0.0179,-0.0165,-0.0179,-0.0171,-0.0171,-0.0171,0,0.0487,0.0512,0.0566,0.059,0.0596,0.0611,0.0622,0.0619,0.0577,0.0551,0.0488,0.0408,0.0319,0.0222,0.0061,0.0082,-0.0037,-0.0126,-0.013,-0.0167,-0.0217,-0.0213,-0.0185,-0.0451,-0.0176,-0.0175,-0.0175,0,0.0547,0.0582,0.0635,0.0641,0.0658,0.0683,0.0691,0.0673,0.0709,0.066,0.0698,0.0547,0.0525,0.0338,0.0149,0.0105,-0.0007,-0.0095,-0.021,-0.0209,-0.0239,-0.0241,-0.0477,-0.0221,-0.0221,-0.0221,-0.0221,0,0.0606,0.0647,0.0677,0.0708,0.0789,0.0768,0.0858,0.0839,0.0868,0.0963,0.0797,0.0855,0.0551,0.0449,0.0226,0.0037,0.0049,-0.0184,-0.0218,-0.0202,-0.0201,-0.047,-0.0626,-0.0222,-0.0222,-0.0221,-0.0221,0,0.0671,0.0682,0.0754,0.0799,0.0826,0.0889,0.0991,0.1065,0.107,0.1199,0.1199,0.1101,0.0976,0.0687,0.0417,0.0181,-0.0186,-0.0119,-0.0056,-0.0084,-0.0471,-0.062,-0.0882,-0.1002,-0.0257,-0.0257,-0.0257,0,0.0712,0.0759,0.084,0.0915,0.095,0.1049,0.1138,0.1161,0.1275,0.1387,0.1482,0.1386,0.139,0.0996,0.0532,0.0149,-0.0142,-0.012,-0.0237,-0.0478,-0.0671,-0.0791,-0.0882,-0.0226,-0.0225,-0.0225,-0.0225,0,0.0814,0.0843,0.0913,0.1062,0.117,0.1296,0.1438,0.1562,0.165,0.1777,0.1953,0.1965,0.159,0.1206,0.0635,0.0333,-0.0318,-0.0131,-0.0416,-0.069,-0.0803,-0.0936,-0.0204,-0.0225,-0.0225,-0.0225,-0.0225,-0.0225,0.0914,0.0991,0.1103,0.1245,0.1372,0.1569,0.1718,0.1901,0.2123,0.2375,0.2341,0.2439,0.1813,0.1042,0.0582,-0.0288,-0.0312,-0.0561,-0.0722,-0.0819,-0.0956,-0.0197,-0.0244,-0.0244,-0.0244,-0.0245,-0.0245,0,0.1073,0.1159,0.1293,0.1477,0.1645,0.1676,0.1944,0.2129,0.2444,0.2661,0.2823,0.2581,0.1823,0.1001,-0.0171,-0.0766,-0.1016,-0.1105,-0.1303,-0.137,-0.0719,-0.074,-0.0854,-0.0854,-0.0854,-0.0853,-0.0853,-0.0853,0.1179,0.1343,0.1401,0.17,0.1829,0.2084,0.2253,0.2529,0.2744,0.3032,0.3095,0.3094,0.2419,0.0348,-0.1037,-0.1353,-0.1798,-0.1891,-0.2104,-0.1701,-0.1664,-0.1628,-0.1687,-0.1997,-0.1999,-0.268,-0.2687,-0.2692]}],[{"header":{"parameterUnit":"m.s-1","parameterCategory":2,"la1":30.2991,"la2":30.254,"lo1":-89.0895,"lo2":-89.0444,"dy":0.0017,"dx":0.0017,"nx":28,"ny":28,"refTime":"2025-06-23T03:00:00:Z","depth":"2","parameterNumber":2,"parameterNumberName":"U-component_of_CURRENTS"},"data":[0,0,0,0,0,0,0,0,0,0,0,0,0,0,0,0,0,0,0,0,0,0,0,0,0,0,0,0,0,0,0,0,0,0,0,0,0,0,0,0,0,0,0,0,0,0,0,0,0,0,0,0,0,0,0,0,0,0,0.2968,0.2969,0,0.3016,0.3016,0.3017,0.3035,0.3035,0.3035,0.3035,0.3064,0.3064,0.3065,0,0,0,0,0,0,0,0,0,0,0,0,0,0.2852,0.2854,0.2968,0.2969,0.297,0.3016,0.3016,0.3017,0.3035,0.3035,0.3035,0.3035,0.3064,0.3064,0.3065,0,0,0,0,0,0,0,0,0,0,0,0,0,0.2898,0.2855,0.2968,0.2987,0.2989,0.3016,0.3016,0.3017,0.3035,0.3035,0.3035,0.3036,0.3063,0.3064,0.3065,0.3066,0,0,0.3068,0.3068,0,0,0,0,0,0,0,0,0.2896,0.2902,0.2983,0.2986,0.2988,0.3023,0.2986,0.3034,0.3035,0.3014,0.3035,0.3036,0.305,0.3052,0.3056,0.3067,0.3069,0.3068,0.3069,0.3069,0.3069,0,0,0,0,0,0,0,0.2893,0.29,0.2984,0.2984,0.2987,0.298,0.2986,0.2995,0.3027,0.3016,0.3018,0.3029,0.3051,0.3055,0.3057,0.3069,0.3068,0.3069,0.3069,0.307,0.3172,0.3174,0,0,0,0,0,0,0.2896,0.2898,0.2982,0.2985,0.2946,0.2982,0.2989,0.3009,0.3028,0.3032,0.3028,0.3029,0.3054,0.3056,0.3058,0.313,0.3069,0.307,0.307,0.317,0.3173,0.3175,0,0,0,0,0,0,0.2893,0.2903,0.298,0.2944,0.2954,0.2984,0.3005,0.301,0.3026,0.3038,0.3041,0.3043,0.3054,0.3057,0.3095,0.3128,0.307,0.3071,0.3167,0.3171,0.3174,0.3228,0,0,0,0,0,0,0.289,0.2902,0.2914,0.2945,0.2957,0.301,0.3006,0.3011,0.3033,0.3035,0.3051,0.3053,0.3054,0.3094,0.3096,0.3128,0.3072,0.3165,0.3169,0.3173,0.3224,0.3233,0.3241,0,0,0,0,0,0.2885,0.2902,0.2915,0.2925,0.2974,0.3011,0.3016,0.3035,0.3034,0.3048,0.307,0.3053,0.3122,0.3097,0.3099,0.3132,0.3163,0.3168,0.3172,0.322,0.3231,0.3241,0,0,0,0,0,0,0.2864,0.2907,0.2921,0.2952,0.2986,0.3015,0.3037,0.3041,0.3067,0.3077,0.3075,0.308,0.3129,0.3125,0.3097,0.3177,0.3141,0.3147,0.3177,0.3188,0.3196,0.322,0.3073,0,0,0,0,0,0.2865,0.2887,0.293,0.2957,0.2982,0.3009,0.3026,0.3042,0.307,0.3082,0.3097,0.312,0.3148,0.3163,0.3186,0.3221,0.3244,0.3248,0.3256,0.3263,0.3287,0.334,0.3355,0.3191,0.3191,0.3191,0,0,0.2859,0.2892,0.2901,0.2953,0.2987,0.3019,0.302,0.3062,0.3092,0.3081,0.3132,0.315,0.3166,0.3216,0.3237,0.3217,0.3327,0.327,0.3275,0.3296,0.3347,0.3363,0.3377,0.3194,0.3194,0.3193,0,0,0.2864,0.2902,0.2922,0.2958,0.3015,0.3036,0.305,0.3095,0.3127,0.3171,0.3182,0.3227,0.3254,0.3288,0.3302,0.3372,0.3371,0.3374,0.3434,0.3485,0.3499,0.3511,0.3576,0.3594,0.3376,0.3376,0.3376,0,0.2852,0.29,0.2933,0.2973,0.3011,0.3044,0.3084,0.3117,0.3166,0.3205,0.3199,0.3287,0.3294,0.3369,0.3399,0.3391,0.3424,0.3387,0.3495,0.3508,0.352,0.3584,0.3602,0.338,0.3379,0.3379,0.3379,0,0.2881,0.2921,0.2948,0.3006,0.3044,0.3092,0.3148,0.319,0.3226,0.326,0.3351,0.3382,0.3433,0.3446,0.3443,0.3537,0.3536,0.3498,0.3465,0.3539,0.3602,0.3621,0.3384,0.3383,0.3382,0.3381,0,0,0.2843,0.2943,0.2953,0.2991,0.3076,0.3106,0.3178,0.3255,0.3311,0.3368,0.3448,0.3513,0.3539,0.356,0.3572,0.3625,0.3735,0.3604,0.3605,0.3664,0.387,0.3828,0.3844,0.3711,0.3714,0.3717,0.3885,0,0.286,0.2929,0.2984,0.3049,0.3092,0.3163,0.3229,0.33,0.3368,0.345,0.3517,0.3596,0.3579,0.3621,0.367,0.3722,0.3785,0.3695,0.3795,0.3799,0.3747,0.3864,0.3573,0.3695,0.3904,0.3907,0.3909,0,0.2872,0.2919,0.2992,0.3089,0.312,0.3162,0.3283,0.3353,0.3475,0.3539,0.3629,0.3673,0.3785,0.3745,0.3888,0.3831,0.3865,0.3899,0.3904,0.3861,0.3792,0.3653,0.3721,0.394,0.3937,0.3935,0.3933,0,0.2826,0.2924,0.2986,0.3021,0.3132,0.3187,0.3254,0.3377,0.3462,0.361,0.3682,0.3795,0.3881,0.3939,0.4006,0.3959,0.4152,0.4082,0.4085,0.4083,0.3856,0.3828,0.4187,0.4187,0.4186,0.4186,0.4185,0,0.2827,0.2865,0.2969,0.2998,0.3077,0.3172,0.3275,0.3368,0.3514,0.3614,0.3728,0.3823,0.3936,0.404,0.4064,0.4154,0.42,0.4142,0.4136,0.3869,0.3841,0.4054,0.4036,0.4192,0.4191,0.4189,0.4188,0,0.2764,0.2843,0.2901,0.3016,0.3058,0.3115,0.3269,0.3341,0.3505,0.3641,0.3699,0.3889,0.4042,0.4141,0.4271,0.4248,0.4318,0.4327,0.4024,0.398,0.4201,0.4184,0.4363,0.4363,0.4363,0.4363,0.4364,0,0.2742,0.2773,0.2881,0.2922,0.2978,0.3075,0.3145,0.3317,0.3401,0.366,0.3715,0.3935,0.4043,0.4249,0.4277,0.4357,0.4378,0.4115,0.3966,0.4249,0.4226,0.4209,0.4192,0.3695,0.3689,0.3685,0.3681,0,0.2699,0.2741,0.2788,0.2857,0.293,0.2996,0.311,0.3169,0.338,0.3504,0.3679,0.3799,0.4036,0.4008,0.4145,0.4127,0.4076,0.403,0.4417,0.3694,0.3632,0.3604,0.3608,0.3642,0.3646,0.3649,0.3651,0.3653,0.2663,0.2674,0.2742,0.2795,0.2862,0.2899,0.2917,0.3034,0.3148,0.3294,0.3502,0.3593,0.3728,0.379,0.3727,0.3699,0.396,0.3781,0.3789,0.3803,0.3694,0.3636,0.3628,0.3632,0.3635,0.3638,0.364,0,0.2614,0.2639,0.2677,0.2729,0.2727,0.2809,0.2876,0.2858,0.2914,0.3086,0.3209,0.3069,0.3134,0.3248,0.3173,0.3228,0.3129,0.3085,0.2918,0.2965,0.3005,0.2846,0.256,0.2555,0.2551,0.2547,0,0,0.2596,0.2599,0.2601,0.2584,0.2612,0.2569,0.2571,0.2559,0.263,0.2627,0.2671,0.2964,0.3166,0.2791,0.2803,0.2658,0.276,0.2561,0.3448,0.3299,0.3331,0.3458,0.3276,0,0,0,0,0]},{"header":{"parameterUnit":"m.s-1","parameterCategory":2,"la1":30.2991,"la2":30.254,"lo1":-89.0895,"lo2":-89.0444,"dy":0.0017,"dx":0.0017,"nx":28,"ny":28,"refTime":"2025-06-23T03:00:00:Z","depth":"2","parameterNumber":3,"parameterNumberName":"V-component_of_CURRENTS"},"data":[0,0,0,0,0,0,0,0,0,0,0,0,0,0,0,0,0,0,0,0,0,0,0,0,0,0,0,0,0,0,0,0,0,0,0,0,0,0,0,0,0,0,0,0,0,0,0,0,0,0,0,0,0,0,0,0,0,0,-0.0014,-0.0015,0,-0.0099,-0.01,-0.0102,-0.0164,-0.0164,-0.0164,-0.0165,-0.0296,-0.0299,-0.0303,0,0,0,0,0,0,0,0,0,0,0,0,0,0.0025,0.0025,-0.0014,-0.0015,-0.0016,-0.0099,-0.0101,-0.0102,-0.0164,-0.0164,-0.0164,-0.0165,-0.0295,-0.0299,-0.0303,0,0,0,0,0,0,0,0,0,0,0,0,0,-0.0021,0.0024,-0.0014,-0.0055,-0.006,-0.0099,-0.0101,-0.0102,-0.0164,-0.0164,-0.0165,-0.0165,-0.0294,-0.0299,-0.0303,-0.0323,0,0,-0.0318,-0.032,0,0,0,0,0,0,0,0,-0.0019,-0.0023,-0.0048,-0.0052,-0.0057,-0.012,-0.0135,-0.0178,-0.0163,-0.0126,-0.0165,-0.0165,-0.024,-0.0249,-0.0266,-0.0329,-0.0335,-0.0318,-0.0321,-0.0323,-0.0325,0,0,0,0,0,0,0,-0.0015,-0.002,-0.005,-0.0049,-0.0055,-0.0093,-0.01,-0.0144,-0.0182,-0.013,-0.0134,-0.014,-0.0243,-0.0261,-0.027,-0.0337,-0.0318,-0.0323,-0.0325,-0.0327,-0.0429,-0.0429,0,0,0,0,0,0,0.0004,-0.0016,-0.0047,-0.0053,-0.0036,-0.0093,-0.0101,-0.0101,-0.018,-0.0192,-0.0139,-0.0142,-0.0253,-0.0264,-0.0275,-0.0292,-0.0323,-0.0328,-0.0331,-0.0429,-0.0429,-0.0429,0,0,0,0,0,0,0.0005,0.0002,-0.0044,-0.0035,-0.0044,-0.0092,-0.0093,-0.0102,-0.012,-0.0187,-0.02,-0.0147,-0.0254,-0.0268,-0.0307,-0.0298,-0.033,-0.0334,-0.0429,-0.0429,-0.0429,-0.0333,0,0,0,0,0,0,0.0007,0.0003,0.0008,-0.0034,-0.0043,-0.0057,-0.0092,-0.0103,-0.0122,-0.0127,-0.0197,-0.021,-0.0255,-0.0299,-0.0311,-0.0305,-0.0338,-0.043,-0.0429,-0.0429,-0.0337,-0.033,-0.0324,0,0,0,0,0,0.0009,0.0024,0.0009,0.0005,-0.0034,-0.0056,-0.0065,-0.0104,-0.0121,-0.0123,-0.017,-0.0208,-0.0306,-0.0303,-0.0317,-0.0312,-0.043,-0.0429,-0.0429,-0.0339,-0.0331,-0.0324,0,0,0,0,0,0,0.0043,0.0018,0.0001,0.0008,-0.0019,-0.0066,-0.0069,-0.0097,-0.0136,-0.0139,-0.0206,-0.0221,-0.0253,-0.0296,-0.0291,-0.0342,-0.0375,-0.0377,-0.0302,-0.0294,-0.0288,-0.0263,-0.0342,0,0,0,0,0,0.0055,0.006,0.0025,0.003,0.0022,-0.0023,-0.0038,-0.0062,-0.01,-0.0118,-0.0166,-0.0219,-0.0263,-0.0288,-0.0334,-0.036,-0.04,-0.0367,-0.0361,-0.0355,-0.0345,-0.04,-0.0397,-0.0428,-0.0428,-0.0428,0,0,0.0069,0.0056,0.0058,0.0037,0.0014,0.0015,-0.0033,-0.0044,-0.0047,-0.0126,-0.0143,-0.0198,-0.0266,-0.0294,-0.0312,-0.0328,-0.0366,-0.0354,-0.0349,-0.0343,-0.0399,-0.0396,-0.0393,-0.0427,-0.0427,-0.0427,0,0,0.0108,0.0091,0.011,0.0096,0.0073,0.0046,0.0048,0.0007,-0.0014,-0.004,-0.0097,-0.014,-0.0209,-0.0252,-0.0284,-0.0271,-0.033,-0.029,-0.0237,-0.029,-0.0287,-0.0286,-0.0321,-0.0323,-0.0286,-0.0286,-0.0286,0,0.0126,0.0146,0.0111,0.0126,0.0125,0.0068,0.009,0.0059,0.001,-0.0001,-0.0032,-0.0128,-0.0187,-0.0222,-0.0221,-0.0255,-0.0291,-0.0257,-0.0279,-0.0279,-0.0279,-0.0316,-0.032,-0.0281,-0.0282,-0.0282,-0.0283,0,0.0179,0.0193,0.0205,0.0208,0.02,0.0209,0.0171,0.0158,0.0122,0.0086,0.0043,-0.004,-0.0094,-0.0125,-0.0172,-0.0199,-0.0226,-0.0263,-0.0293,-0.027,-0.0311,-0.0316,-0.0274,-0.0276,-0.0278,-0.0279,0,0,0.0224,0.0241,0.0245,0.0267,0.0247,0.0251,0.0251,0.0235,0.0244,0.0172,0.0171,0.0076,0.0026,-0.0014,-0.0082,-0.0134,-0.0168,-0.0192,-0.0197,-0.0215,-0.0273,-0.0294,-0.0303,-0.0212,-0.0213,-0.0213,-0.0297,0,0.0277,0.0335,0.0322,0.0373,0.0401,0.036,0.037,0.0345,0.0308,0.029,0.0192,0.0159,0.0069,0.0048,-0.002,-0.0129,-0.0181,-0.0141,-0.0303,-0.0308,-0.032,-0.031,-0.0275,-0.0347,-0.0303,-0.0304,-0.0304,0,0.0334,0.0369,0.0433,0.0471,0.048,0.0494,0.0508,0.0508,0.046,0.0431,0.037,0.0294,0.021,0.0131,-0.0043,-0.0015,-0.0132,-0.0224,-0.0231,-0.0287,-0.034,-0.0368,-0.036,-0.0315,-0.0314,-0.0313,-0.0312,0,0.0394,0.0447,0.0505,0.0516,0.0544,0.0564,0.0572,0.055,0.0575,0.0521,0.0529,0.0403,0.0358,0.0188,-0.0007,-0.0025,-0.0197,-0.0249,-0.0377,-0.038,-0.04,-0.0403,-0.0369,-0.0369,-0.0369,-0.0369,-0.0369,0,0.0458,0.0505,0.054,0.0572,0.0649,0.0636,0.0702,0.0688,0.0693,0.0736,0.0608,0.0612,0.0369,0.024,0.004,-0.0177,-0.0165,-0.0362,-0.0404,-0.0365,-0.0364,-0.0381,-0.0381,-0.0372,-0.0371,-0.0371,-0.037,0,0.0513,0.0533,0.0608,0.0656,0.068,0.0732,0.0803,0.0852,0.0837,0.089,0.0884,0.0775,0.0606,0.036,0.0096,-0.0094,-0.0312,-0.0394,-0.0323,-0.0356,-0.0472,-0.0466,-0.0545,-0.0546,-0.0547,-0.0548,-0.0549,0,0.0545,0.059,0.0675,0.0729,0.0754,0.0833,0.0895,0.0919,0.0985,0.0996,0.1037,0.0904,0.0824,0.0433,0.0079,-0.0262,-0.031,-0.0453,-0.0493,-0.0457,-0.0491,-0.0483,-0.0476,-0.048,-0.048,-0.048,-0.0481,0,0.0608,0.0633,0.0696,0.0813,0.089,0.0993,0.1084,0.1163,0.12,0.1247,0.1281,0.122,0.086,0.052,0.0054,-0.0178,-0.04,-0.0468,-0.0452,-0.0438,-0.0402,-0.0433,-0.0427,-0.0482,-0.0482,-0.0482,-0.0482,-0.0482,0.0646,0.0704,0.0786,0.0899,0.1002,0.113,0.1227,0.1326,0.1443,0.1516,0.1462,0.1386,0.0998,0.0412,0.0003,-0.0415,-0.0408,-0.0556,-0.0552,-0.055,-0.0524,-0.0493,-0.0584,-0.0584,-0.0585,-0.0585,-0.0585,0,0.068,0.0754,0.0866,0.1,0.1124,0.1174,0.1343,0.1435,0.1574,0.1643,0.1661,0.1308,0.0924,0.049,-0.0134,-0.0517,-0.0543,-0.0626,-0.0576,-0.0571,-0.0568,-0.0542,-0.0608,-0.0609,-0.061,-0.0611,0,0,0.0694,0.0796,0.086,0.1067,0.118,0.1341,0.1444,0.1571,0.1665,0.1725,0.1703,0.1613,0.1081,0.0631,0.0106,-0.0247,-0.0316,-0.0313,-0.0255,-0.013,-0.0122,-0.049,-0.0441,0,0,0,0,0]}],[{"header":{"parameterUnit":"m.s-1","parameterCategory":2,"la1":30.2991,"la2":30.254,"lo1":-89.0895,"lo2":-89.0444,"dy":0.0017,"dx":0.0017,"nx":28,"ny":28,"refTime":"2025-06-23T03:00:00:Z","depth":"4","parameterNumber":2,"parameterNumberName":"U-component_of_CURRENTS"},"data":[0,0,0,0,0,0,0,0,0,0,0,0,0,0,0,0,0,0,0,0,0,0,0,0,0,0,0,0,0,0,0,0,0,0,0,0,0,0,0,0,0,0,0,0,0,0,0,0,0,0,0,0,0,0,0,0,0,0,0.1879,0.188,0,0.1973,0.1974,0.1975,0.2045,0.2046,0.2047,0.2048,0.2148,0.215,0.2151,0,0,0,0,0,0,0,0,0,0,0,0,0,0.1757,0.1758,0.1879,0.188,0.1882,0.1973,0.1974,0.1975,0.2045,0.2046,0.2047,0.2048,0.2147,0.2149,0.2152,0,0,0,0,0,0,0,0,0,0,0,0,0,0.1823,0.1759,0.1878,0.193,0.1936,0.1973,0.1974,0.1976,0.2045,0.2046,0.2048,0.2049,0.2147,0.2149,0.2152,0.2141,0,0,0.216,0.2161,0,0,0,0,0,0,0,0,0.1819,0.1827,0.1921,0.1926,0.1933,0.2002,0.1968,0.2032,0.2045,0.2,0.2048,0.205,0.2101,0.2107,0.2117,0.2146,0.215,0.216,0.2162,0.2163,0.2164,0,0,0,0,0,0,0,0.1815,0.1824,0.1913,0.1922,0.193,0.1948,0.1959,0.198,0.2039,0.2004,0.201,0.2025,0.2104,0.2114,0.212,0.2152,0.216,0.2163,0.2164,0.2166,0.2305,0.2306,0,0,0,0,0,0,0.1808,0.1819,0.191,0.1916,0.1882,0.1949,0.1961,0.1976,0.2039,0.2051,0.2024,0.2028,0.2109,0.2117,0.2124,0.2232,0.2163,0.2166,0.2167,0.2302,0.2305,0.2307,0,0,0,0,0,0,0.1805,0.1815,0.1906,0.1872,0.1886,0.195,0.1966,0.1977,0.2032,0.2055,0.2066,0.2073,0.2111,0.212,0.2185,0.2232,0.2167,0.2169,0.23,0.2303,0.2306,0.2373,0,0,0,0,0,0,0.1801,0.1813,0.1841,0.1872,0.1888,0.1956,0.1965,0.1978,0.2038,0.2045,0.2099,0.2108,0.2112,0.2181,0.2188,0.2235,0.2172,0.2297,0.2301,0.2305,0.2369,0.2378,0.2387,0,0,0,0,0,0.1796,0.1819,0.1841,0.1854,0.1916,0.1958,0.1968,0.2015,0.2039,0.2068,0.2111,0.2108,0.2211,0.2185,0.2192,0.2241,0.2296,0.23,0.2305,0.2364,0.2376,0.2387,0,0,0,0,0,0,0.1777,0.1829,0.1854,0.1893,0.1937,0.1971,0.2007,0.2037,0.2093,0.2114,0.2132,0.2143,0.2219,0.2219,0.2191,0.2293,0.2254,0.226,0.2297,0.2308,0.2317,0.2313,0.2174,0,0,0,0,0,0.1785,0.1822,0.1868,0.1904,0.1928,0.1976,0.2007,0.2042,0.2086,0.2114,0.2152,0.2195,0.2235,0.2265,0.2296,0.2348,0.236,0.2386,0.2395,0.2403,0.2405,0.246,0.2474,0.2322,0.2322,0.2322,0,0,0.1787,0.1823,0.1845,0.1904,0.1942,0.1981,0.1999,0.2058,0.2102,0.2114,0.2195,0.2231,0.2257,0.2321,0.2355,0.2334,0.2458,0.2409,0.2415,0.2413,0.2466,0.2481,0.2494,0.2326,0.2325,0.2325,0,0,0.1795,0.1843,0.1875,0.1916,0.1986,0.2014,0.2041,0.2103,0.2148,0.2219,0.2245,0.2309,0.2369,0.2399,0.2418,0.2495,0.2505,0.2516,0.2561,0.2615,0.2627,0.2638,0.2692,0.2707,0.252,0.252,0.252,0,0.1801,0.1843,0.1891,0.193,0.1969,0.2032,0.2072,0.2121,0.2202,0.2246,0.2258,0.2377,0.2401,0.2478,0.2509,0.2516,0.2551,0.2515,0.2626,0.2637,0.2647,0.2699,0.2716,0.2524,0.2524,0.2523,0.2523,0,0.1822,0.1872,0.1895,0.1965,0.2012,0.2061,0.2128,0.2196,0.2258,0.2307,0.2416,0.2457,0.2528,0.2552,0.2555,0.2649,0.2654,0.2631,0.2595,0.2667,0.2717,0.2733,0.253,0.2528,0.2527,0.2526,0,0,0.1787,0.189,0.1902,0.1945,0.2039,0.2076,0.2161,0.2248,0.2319,0.2406,0.2496,0.2571,0.2616,0.264,0.2668,0.2715,0.2822,0.2714,0.2715,0.2761,0.296,0.2791,0.2792,0.2829,0.2832,0.2834,0.2973,0,0.1793,0.1864,0.1917,0.1995,0.2037,0.2123,0.2194,0.2289,0.2375,0.2481,0.2555,0.2652,0.2643,0.2704,0.275,0.2813,0.2865,0.2788,0.2888,0.2891,0.2727,0.2804,0.2843,0.2984,0.2988,0.299,0.2992,0,0.1784,0.1841,0.1912,0.2021,0.2049,0.2109,0.2243,0.2318,0.2467,0.2545,0.2653,0.2723,0.2836,0.2808,0.2943,0.2903,0.2939,0.2969,0.2975,0.2799,0.2749,0.2894,0.302,0.3018,0.3016,0.3014,0.3012,0,0.1722,0.183,0.189,0.1928,0.206,0.2122,0.2202,0.2344,0.2432,0.2603,0.2698,0.282,0.292,0.2979,0.3054,0.3021,0.3188,0.3141,0.3021,0.3011,0.3091,0.3077,0.3223,0.3222,0.3222,0.3222,0.3221,0,0.1683,0.1736,0.1875,0.1908,0.1999,0.2102,0.2216,0.232,0.2486,0.2593,0.2734,0.2833,0.2972,0.308,0.3107,0.3118,0.3235,0.3041,0.3034,0.3119,0.3106,0.3103,0.3087,0.3227,0.3226,0.3225,0.3224,0,0.1593,0.1686,0.1766,0.1916,0.1971,0.2037,0.222,0.2299,0.2475,0.2624,0.2694,0.2898,0.3027,0.3138,0.3259,0.318,0.3209,0.3181,0.3297,0.3293,0.2984,0.297,0.305,0.3046,0.3041,0.3038,0.3035,0,0.1548,0.1582,0.175,0.1805,0.1878,0.2001,0.2083,0.2274,0.2363,0.263,0.2689,0.2899,0.3006,0.3049,0.3163,0.3216,0.3174,0.3172,0.3033,0.2981,0.2967,0.296,0.2952,0.3029,0.3028,0.3027,0.3025,0,0.1462,0.1537,0.1605,0.1718,0.1815,0.1911,0.2047,0.2103,0.232,0.251,0.2625,0.2711,0.2857,0.2939,0.3018,0.3037,0.3157,0.3127,0.3134,0.3004,0.2955,0.2944,0.2942,0.3011,0.3013,0.3015,0.3015,0,0.1401,0.1425,0.1526,0.1614,0.1727,0.1784,0.1871,0.1983,0.2101,0.2389,0.242,0.2634,0.282,0.2851,0.2916,0.2935,0.2876,0.2767,0.2791,0.2808,0.2663,0.2562,0.2502,0,0,0,0,0,0.1329,0.1347,0.1414,0.1501,0.1604,0.1674,0.1834,0.1927,0.2143,0.2163,0.2287,0.2404,0.2515,0.2628,0.2599,0.2814,0.2887,0.2768,0.2772,0.2932,0.2949,0.28,0,0,0,0,0,0,0.1285,0.1337,0.1368,0.1391,0.1426,0.1525,0.1617,0.1759,0.1785,0.201,0.2082,0.226,0.2403,0.2505,0.2552,0.2588,0.2543,0.2908,0.2902,0.2923,0.2938,0.2951,0.2804,0,0,0,0,0]},{"header":{"parameterUnit":"m.s-1","parameterCategory":2,"la1":30.2991,"la2":30.254,"lo1":-89.0895,"lo2":-89.0444,"dy":0.0017,"dx":0.0017,"nx":28,"ny":28,"refTime":"2025-06-23T03:00:00:Z","depth":"4","parameterNumber":3,"parameterNumberName":"V-component_of_CURRENTS"},"data":[0,0,0,0,0,0,0,0,0,0,0,0,0,0,0,0,0,0,0,0,0,0,0,0,0,0,0,0,0,0,0,0,0,0,0,0,0,0,0,0,0,0,0,0,0,0,0,0,0,0,0,0,0,0,0,0,0,0,0.0016,0.0015,0,-0.0045,-0.0046,-0.0047,-0.0091,-0.0091,-0.0091,-0.0091,-0.0194,-0.0196,-0.0198,0,0,0,0,0,0,0,0,0,0,0,0,0,0.004,0.004,0.0016,0.0015,0.0015,-0.0045,-0.0046,-0.0047,-0.0091,-0.0091,-0.0091,-0.0091,-0.0193,-0.0196,-0.0199,0,0,0,0,0,0,0,0,0,0,0,0,0,0.0009,0.004,0.0016,-0.0013,-0.0016,-0.0045,-0.0046,-0.0047,-0.0091,-0.0091,-0.0091,-0.0092,-0.0192,-0.0195,-0.0199,-0.0215,0,0,-0.0211,-0.0212,0,0,0,0,0,0,0,0,0.001,0.0007,-0.0008,-0.0011,-0.0015,-0.0059,-0.0075,-0.0105,-0.009,-0.0064,-0.0091,-0.0092,-0.0151,-0.0158,-0.0171,-0.022,-0.0225,-0.0211,-0.0213,-0.0215,-0.0216,0,0,0,0,0,0,0,0.0013,0.001,-0.001,-0.0009,-0.0013,-0.0042,-0.0046,-0.0081,-0.0107,-0.0066,-0.0069,-0.0074,-0.0154,-0.0167,-0.0173,-0.0226,-0.0211,-0.0214,-0.0216,-0.0218,-0.03,-0.03,0,0,0,0,0,0,0.0027,0.0012,-0.0008,-0.0011,-0.0001,-0.0041,-0.0047,-0.0046,-0.0106,-0.0114,-0.0073,-0.0075,-0.016,-0.0169,-0.0177,-0.019,-0.0215,-0.0218,-0.022,-0.03,-0.03,-0.03,0,0,0,0,0,0,0.0027,0.0026,-0.0005,-0.0,-0.0006,-0.0041,-0.004,-0.0047,-0.0061,-0.011,-0.012,-0.008,-0.0161,-0.0172,-0.0203,-0.0195,-0.022,-0.0223,-0.03,-0.03,-0.03,-0.0222,0,0,0,0,0,0,0.0028,0.0026,0.003,0.0001,-0.0006,-0.0015,-0.004,-0.0048,-0.0062,-0.0066,-0.0119,-0.0129,-0.0162,-0.0197,-0.0206,-0.02,-0.0226,-0.03,-0.03,-0.03,-0.0225,-0.0219,-0.0214,0,0,0,0,0,0.003,0.0042,0.0031,0.0029,0.0002,-0.0014,-0.002,-0.0048,-0.0062,-0.0063,-0.0099,-0.0127,-0.0203,-0.02,-0.0211,-0.0206,-0.03,-0.03,-0.03,-0.0227,-0.022,-0.0215,0,0,0,0,0,0,0.0053,0.0037,0.0025,0.0031,0.0012,-0.0021,-0.0023,-0.0044,-0.0074,-0.0077,-0.0126,-0.0138,-0.0163,-0.0197,-0.0192,-0.023,-0.0257,-0.0259,-0.0197,-0.0192,-0.0187,-0.0162,-0.023,0,0,0,0,0,0.0061,0.0067,0.0043,0.0047,0.0041,0.0009,-0.0002,-0.0019,-0.0048,-0.0061,-0.0097,-0.0138,-0.0172,-0.019,-0.0226,-0.0245,-0.0283,-0.0251,-0.0246,-0.0241,-0.023,-0.0282,-0.028,-0.0299,-0.0299,-0.0299,0,0,0.0072,0.0064,0.0066,0.0052,0.0036,0.004,0.0001,-0.0007,-0.0005,-0.0068,-0.0078,-0.0122,-0.0174,-0.0194,-0.0209,-0.022,-0.0256,-0.0241,-0.0236,-0.0227,-0.0281,-0.0279,-0.0278,-0.0299,-0.0299,-0.0299,0,0,0.0101,0.0089,0.0105,0.0096,0.008,0.0062,0.0063,0.0034,0.0019,0.0001,-0.0043,-0.0077,-0.013,-0.0161,-0.0185,-0.0175,-0.0229,-0.0191,-0.0144,-0.0195,-0.0193,-0.0192,-0.0237,-0.0241,-0.0187,-0.0187,-0.0187,0,0.0114,0.0132,0.0106,0.012,0.0122,0.0078,0.0098,0.0077,0.0042,0.0034,0.0009,-0.0066,-0.0111,-0.0136,-0.0132,-0.0161,-0.02,-0.016,-0.0186,-0.0187,-0.0187,-0.0233,-0.0238,-0.0183,-0.0184,-0.0184,-0.0184,0,0.0156,0.017,0.018,0.0187,0.0184,0.0192,0.0167,0.0159,0.0132,0.0105,0.0072,0.0008,-0.0034,-0.0058,-0.0093,-0.0115,-0.0145,-0.0174,-0.0197,-0.018,-0.023,-0.0237,-0.0178,-0.0179,-0.018,-0.0181,0,0,0.0186,0.0208,0.0211,0.0232,0.0223,0.0228,0.0233,0.0225,0.0232,0.0179,0.0177,0.0109,0.0066,0.0036,-0.0018,-0.0061,-0.0102,-0.0112,-0.0116,-0.0146,-0.0213,-0.0217,-0.0225,-0.0139,-0.0139,-0.014,-0.0245,0,0.0228,0.0278,0.0274,0.032,0.0344,0.0318,0.0331,0.0315,0.0286,0.027,0.0196,0.0168,0.0104,0.0084,0.003,-0.0071,-0.0116,-0.007,-0.0233,-0.0237,-0.0235,-0.0232,-0.0142,-0.0251,-0.0253,-0.0254,-0.0255,0,0.027,0.0302,0.0358,0.0398,0.0407,0.0424,0.0439,0.0444,0.0406,0.0381,0.0332,0.0271,0.0201,0.0144,-0.0013,0.0017,-0.0084,-0.0166,-0.0172,-0.0205,-0.0253,-0.0274,-0.0268,-0.0267,-0.0266,-0.0265,-0.0264,0,0.0309,0.0361,0.0413,0.0425,0.0458,0.0479,0.0492,0.0476,0.0493,0.045,0.0446,0.0346,0.0297,0.016,-0.0008,-0.0014,-0.0185,-0.0218,-0.0317,-0.0319,-0.0317,-0.0317,-0.0322,-0.0322,-0.0322,-0.0322,-0.0321,0,0.0354,0.0396,0.0438,0.0466,0.0532,0.0532,0.0585,0.0579,0.0578,0.0598,0.0507,0.0488,0.0298,0.0177,0.0019,-0.0167,-0.017,-0.0303,-0.0344,-0.0283,-0.0278,-0.0323,-0.0321,-0.0326,-0.0325,-0.0324,-0.0323,0,0.0383,0.0411,0.0475,0.0528,0.0553,0.0596,0.0657,0.0688,0.0678,0.07,0.0694,0.0588,0.0425,0.0233,0.0003,-0.0125,-0.0306,-0.037,-0.0281,-0.0316,-0.0413,-0.0406,-0.0488,-0.0488,-0.0489,-0.049,-0.0491,0,0.04,0.0436,0.052,0.0563,0.059,0.0657,0.0705,0.0733,0.0767,0.0756,0.0766,0.0638,0.0539,0.0226,0.0007,-0.0286,-0.0332,-0.0423,-0.0424,-0.0397,-0.0429,-0.0421,-0.0414,-0.0492,-0.0492,-0.0492,-0.0493,0,0.0424,0.0453,0.0504,0.0598,0.0663,0.0744,0.0811,0.0849,0.0874,0.0878,0.083,0.0673,0.0489,0.0235,0.001,-0.0205,-0.0362,-0.0432,-0.0432,-0.0435,-0.0403,-0.0432,-0.0424,-0.0495,-0.0495,-0.0495,-0.0495,0,0.0429,0.0467,0.0532,0.0618,0.071,0.079,0.0833,0.0874,0.0913,0.0908,0.0887,0.0694,0.0586,0.0276,0.0064,-0.0142,-0.0203,-0.0271,-0.0281,-0.0281,-0.0194,-0.0122,-0.0157,0,0,0,0,0,0.0421,0.0462,0.0543,0.0637,0.0735,0.079,0.0884,0.0918,0.0955,0.0937,0.0919,0.0752,0.0446,0.0311,0.0105,0.002,-0.0258,-0.0232,-0.0346,-0.0511,-0.0508,-0.0443,0,0,0,0,0,0,0.0407,0.0476,0.053,0.0641,0.0708,0.0815,0.0878,0.0909,0.0902,0.091,0.0755,0.0694,0.0396,0.0565,0.0098,0.0035,-0.0068,-0.0369,-0.0373,-0.0513,-0.051,-0.0507,-0.0439,0,0,0,0,0]}]]